<?xml version="1.0" encoding="UTF-8"?>
<gpx
version="1.1"
creator="Kashmir3D 9.310 - http://www.kashmir3d.com"
xmlns:xsi="http://www.w3.org/2001/XMLSchema-instance"
xmlns="http://www.topografix.com/GPX/1/1"
xmlns:kashmir3d="http://www.kashmir3d.com/namespace/kashmir3d"
xsi:schemaLocation="http://www.topografix.com/GPX/1/1 http://www.topografix.com/GPX/1/1/gpx.xsd
	http://www.kashmir3d.com/namespace/kashmir3d http://www.kashmir3d.com/namespace/kashmir3d.xsd">
<trk>
 <name>二上山</name>
 <number>1</number>
 <extensions>
 <kashmir3d:line_color>0000ff</kashmir3d:line_color>
 <kashmir3d:line_size>3</kashmir3d:line_size>
 <kashmir3d:line_style>1</kashmir3d:line_style>
 <kashmir3d:icon>901001</kashmir3d:icon>
 </extensions>
<trkseg>
<trkpt lat="34.518672" lon="135.670035">
 <ele>226.3</ele>
 <time>2020-03-24T15:19:56Z</time>
</trkpt>
<trkpt lat="34.518629" lon="135.670239">
 <ele>227.6</ele>
 <time>2020-03-24T15:19:56Z</time>
</trkpt>
<trkpt lat="34.518595" lon="135.670432">
 <ele>229.8</ele>
 <time>2020-03-24T15:19:56Z</time>
</trkpt>
<trkpt lat="34.518518" lon="135.670754">
 <ele>230.6</ele>
 <time>2020-03-24T15:19:57Z</time>
</trkpt>
<trkpt lat="34.518483" lon="135.670839">
 <ele>231.2</ele>
 <time>2020-03-24T15:19:57Z</time>
</trkpt>
<trkpt lat="34.518501" lon="135.671140">
 <ele>232</ele>
 <time>2020-03-24T15:19:57Z</time>
</trkpt>
<trkpt lat="34.518518" lon="135.671354">
 <ele>233.3</ele>
 <time>2020-03-24T15:19:57Z</time>
</trkpt>
<trkpt lat="34.518612" lon="135.671429">
 <ele>235</ele>
 <time>2020-03-24T15:19:57Z</time>
</trkpt>
<trkpt lat="34.518689" lon="135.671537">
 <ele>238.1</ele>
 <time>2020-03-24T15:19:57Z</time>
</trkpt>
<trkpt lat="34.518741" lon="135.671601">
 <ele>238.3</ele>
 <time>2020-03-24T15:19:57Z</time>
</trkpt>
<trkpt lat="34.518852" lon="135.671623">
 <ele>240.5</ele>
 <time>2020-03-24T15:19:57Z</time>
</trkpt>
<trkpt lat="34.518998" lon="135.671644">
 <ele>245.8</ele>
 <time>2020-03-24T15:19:58Z</time>
</trkpt>
<trkpt lat="34.519110" lon="135.671665">
 <ele>249.8</ele>
 <time>2020-03-24T15:19:58Z</time>
</trkpt>
<trkpt lat="34.519204" lon="135.671687">
 <ele>256.4</ele>
 <time>2020-03-24T15:19:58Z</time>
</trkpt>
<trkpt lat="34.519325" lon="135.671698">
 <ele>261.5</ele>
 <time>2020-03-24T15:19:58Z</time>
</trkpt>
<trkpt lat="34.519402" lon="135.671719">
 <ele>265.5</ele>
 <time>2020-03-24T15:19:58Z</time>
</trkpt>
<trkpt lat="34.519470" lon="135.671794">
 <ele>267.4</ele>
 <time>2020-03-24T15:19:58Z</time>
</trkpt>
<trkpt lat="34.519531" lon="135.671848">
 <ele>270.6</ele>
 <time>2020-03-24T15:19:58Z</time>
</trkpt>
<trkpt lat="34.519608" lon="135.671891">
 <ele>271.4</ele>
 <time>2020-03-24T15:19:58Z</time>
</trkpt>
<trkpt lat="34.519668" lon="135.671934">
 <ele>273.1</ele>
 <time>2020-03-24T15:19:59Z</time>
</trkpt>
<trkpt lat="34.519745" lon="135.671977">
 <ele>274.8</ele>
 <time>2020-03-24T15:19:59Z</time>
</trkpt>
<trkpt lat="34.519805" lon="135.671977">
 <ele>276.8</ele>
 <time>2020-03-24T15:19:59Z</time>
</trkpt>
<trkpt lat="34.519805" lon="135.671880">
 <ele>277.7</ele>
 <time>2020-03-24T15:19:59Z</time>
</trkpt>
<trkpt lat="34.519805" lon="135.671805">
 <ele>277.8</ele>
 <time>2020-03-24T15:19:59Z</time>
</trkpt>
<trkpt lat="34.519848" lon="135.671708">
 <ele>282</ele>
 <time>2020-03-24T15:19:59Z</time>
</trkpt>
<trkpt lat="34.519891" lon="135.671859">
 <ele>281.6</ele>
 <time>2020-03-24T15:19:59Z</time>
</trkpt>
<trkpt lat="34.519977" lon="135.671955">
 <ele>283.4</ele>
 <time>2020-03-24T15:20:00Z</time>
</trkpt>
<trkpt lat="34.520011" lon="135.672020">
 <ele>285.7</ele>
 <time>2020-03-24T15:20:00Z</time>
</trkpt>
<trkpt lat="34.520020" lon="135.672127">
 <ele>287.3</ele>
 <time>2020-03-24T15:20:00Z</time>
</trkpt>
<trkpt lat="34.520054" lon="135.672266">
 <ele>291</ele>
 <time>2020-03-24T15:20:00Z</time>
</trkpt>
<trkpt lat="34.520097" lon="135.672341">
 <ele>294.4</ele>
 <time>2020-03-24T15:20:00Z</time>
</trkpt>
<trkpt lat="34.520131" lon="135.672427">
 <ele>297.4</ele>
 <time>2020-03-24T15:20:00Z</time>
</trkpt>
<trkpt lat="34.520166" lon="135.672492">
 <ele>301.2</ele>
 <time>2020-03-24T15:20:00Z</time>
</trkpt>
<trkpt lat="34.520174" lon="135.672577">
 <ele>305.1</ele>
 <time>2020-03-24T15:20:00Z</time>
</trkpt>
<trkpt lat="34.520157" lon="135.672663">
 <ele>306</ele>
 <time>2020-03-24T15:20:01Z</time>
</trkpt>
<trkpt lat="34.520174" lon="135.672728">
 <ele>309.9</ele>
 <time>2020-03-24T15:20:01Z</time>
</trkpt>
<trkpt lat="34.520234" lon="135.672781">
 <ele>312.4</ele>
 <time>2020-03-24T15:20:01Z</time>
</trkpt>
<trkpt lat="34.520346" lon="135.672846">
 <ele>317.8</ele>
 <time>2020-03-24T15:20:01Z</time>
</trkpt>
<trkpt lat="34.520406" lon="135.672910">
 <ele>320.1</ele>
 <time>2020-03-24T15:20:01Z</time>
</trkpt>
<trkpt lat="34.520492" lon="135.673060">
 <ele>324.3</ele>
 <time>2020-03-24T15:20:01Z</time>
</trkpt>
<trkpt lat="34.520586" lon="135.673210">
 <ele>326.9</ele>
 <time>2020-03-24T15:20:01Z</time>
</trkpt>
<trkpt lat="34.520629" lon="135.673318">
 <ele>331.5</ele>
 <time>2020-03-24T15:20:02Z</time>
</trkpt>
<trkpt lat="34.520706" lon="135.673436">
 <ele>339.5</ele>
 <time>2020-03-24T15:20:02Z</time>
</trkpt>
<trkpt lat="34.520758" lon="135.673543">
 <ele>343.2</ele>
 <time>2020-03-24T15:20:02Z</time>
</trkpt>
<trkpt lat="34.520749" lon="135.673672">
 <ele>346.7</ele>
 <time>2020-03-24T15:20:02Z</time>
</trkpt>
<trkpt lat="34.520689" lon="135.673758">
 <ele>345.9</ele>
 <time>2020-03-24T15:20:02Z</time>
</trkpt>
<trkpt lat="34.520715" lon="135.673822">
 <ele>350.2</ele>
 <time>2020-03-24T15:20:02Z</time>
</trkpt>
<trkpt lat="34.520818" lon="135.673886">
 <ele>357.9</ele>
 <time>2020-03-24T15:20:02Z</time>
</trkpt>
<trkpt lat="34.520895" lon="135.673886">
 <ele>361.4</ele>
 <time>2020-03-24T15:20:02Z</time>
</trkpt>
<trkpt lat="34.520964" lon="135.673951">
 <ele>366.5</ele>
 <time>2020-03-24T15:20:03Z</time>
</trkpt>
<trkpt lat="34.521058" lon="135.674037">
 <ele>369</ele>
 <time>2020-03-24T15:20:03Z</time>
</trkpt>
<trkpt lat="34.521101" lon="135.674090">
 <ele>369.9</ele>
 <time>2020-03-24T15:20:03Z</time>
</trkpt>
<trkpt lat="34.521127" lon="135.674133">
 <ele>371</ele>
 <time>2020-03-24T15:20:03Z</time>
</trkpt>
<trkpt lat="34.521196" lon="135.674251">
 <ele>375.6</ele>
 <time>2020-03-24T15:20:03Z</time>
</trkpt>
<trkpt lat="34.521513" lon="135.674197">
 <ele>375.4</ele>
 <time>2020-03-24T15:20:03Z</time>
</trkpt>
<trkpt lat="34.521711" lon="135.674112">
 <ele>377.7</ele>
 <time>2020-03-24T15:20:03Z</time>
</trkpt>
<trkpt lat="34.521796" lon="135.674058">
 <ele>379.5</ele>
 <time>2020-03-24T15:20:04Z</time>
</trkpt>
<trkpt lat="34.521891" lon="135.673961">
 <ele>382.8</ele>
 <time>2020-03-24T15:20:04Z</time>
</trkpt>
<trkpt lat="34.521960" lon="135.673876">
 <ele>384.7</ele>
 <time>2020-03-24T15:20:04Z</time>
</trkpt>
<trkpt lat="34.522148" lon="135.673779">
 <ele>389.4</ele>
 <time>2020-03-24T15:20:04Z</time>
</trkpt>
<trkpt lat="34.522329" lon="135.673736">
 <ele>393.1</ele>
 <time>2020-03-24T15:20:04Z</time>
</trkpt>
<trkpt lat="34.522457" lon="135.673736">
 <ele>395</ele>
 <time>2020-03-24T15:20:04Z</time>
</trkpt>
<trkpt lat="34.522560" lon="135.673790">
 <ele>396.2</ele>
 <time>2020-03-24T15:20:04Z</time>
</trkpt>
<trkpt lat="34.522663" lon="135.673876">
 <ele>397.4</ele>
 <time>2020-03-24T15:20:05Z</time>
</trkpt>
<trkpt lat="34.522741" lon="135.673929">
 <ele>397.9</ele>
 <time>2020-03-24T15:20:05Z</time>
</trkpt>
<trkpt lat="34.522766" lon="135.674015">
 <ele>399.5</ele>
 <time>2020-03-24T15:20:05Z</time>
</trkpt>
<trkpt lat="34.522818" lon="135.674090">
 <ele>400.9</ele>
 <time>2020-03-24T15:20:05Z</time>
</trkpt>
<trkpt lat="34.522852" lon="135.674165">
 <ele>402.5</ele>
 <time>2020-03-24T15:20:05Z</time>
</trkpt>
<trkpt lat="34.522844" lon="135.674262">
 <ele>405.2</ele>
 <time>2020-03-24T15:20:05Z</time>
</trkpt>
<trkpt lat="34.522852" lon="135.674369">
 <ele>407.6</ele>
 <time>2020-03-24T15:20:05Z</time>
</trkpt>
<trkpt lat="34.522895" lon="135.674476">
 <ele>412.2</ele>
 <time>2020-03-24T15:20:05Z</time>
</trkpt>
<trkpt lat="34.522895" lon="135.674552">
 <ele>415.5</ele>
 <time>2020-03-24T15:20:06Z</time>
</trkpt>
<trkpt lat="34.523024" lon="135.674702">
 <ele>420.6</ele>
 <time>2020-03-24T15:20:06Z</time>
</trkpt>
<trkpt lat="34.523101" lon="135.674820">
 <ele>422.5</ele>
 <time>2020-03-24T15:20:06Z</time>
</trkpt>
<trkpt lat="34.523178" lon="135.674927">
 <ele>422.2</ele>
 <time>2020-03-24T15:20:06Z</time>
</trkpt>
<trkpt lat="34.523247" lon="135.675120">
 <ele>424.1</ele>
 <time>2020-03-24T15:20:06Z</time>
</trkpt>
<trkpt lat="34.523298" lon="135.675270">
 <ele>425</ele>
 <time>2020-03-24T15:20:06Z</time>
</trkpt>
<trkpt lat="34.523410" lon="135.675356">
 <ele>423.6</ele>
 <time>2020-03-24T15:20:06Z</time>
</trkpt>
<trkpt lat="34.523539" lon="135.675453">
 <ele>423.3</ele>
 <time>2020-03-24T15:20:06Z</time>
</trkpt>
<trkpt lat="34.523590" lon="135.675603">
 <ele>424.7</ele>
 <time>2020-03-24T15:20:07Z</time>
</trkpt>
<trkpt lat="34.523642" lon="135.675785">
 <ele>429.1</ele>
 <time>2020-03-24T15:20:07Z</time>
</trkpt>
<trkpt lat="34.523702" lon="135.675925">
 <ele>430.4</ele>
 <time>2020-03-24T15:20:07Z</time>
</trkpt>
<trkpt lat="34.523710" lon="135.676021">
 <ele>430.5</ele>
 <time>2020-03-24T15:20:07Z</time>
</trkpt>
<trkpt lat="34.523779" lon="135.676129">
 <ele>430.7</ele>
 <time>2020-03-24T15:20:07Z</time>
</trkpt>
<trkpt lat="34.523848" lon="135.676204">
 <ele>431.2</ele>
 <time>2020-03-24T15:20:07Z</time>
</trkpt>
<trkpt lat="34.523771" lon="135.676193">
 <ele>431.2</ele>
 <time>2020-03-24T15:20:07Z</time>
</trkpt>
<trkpt lat="34.523659" lon="135.676172">
 <ele>433.4</ele>
 <time>2020-03-24T15:20:08Z</time>
</trkpt>
<trkpt lat="34.523513" lon="135.676118">
 <ele>437.3</ele>
 <time>2020-03-24T15:20:08Z</time>
</trkpt>
<trkpt lat="34.523410" lon="135.676107">
 <ele>440.4</ele>
 <time>2020-03-24T15:20:08Z</time>
</trkpt>
<trkpt lat="34.523316" lon="135.676086">
 <ele>444</ele>
 <time>2020-03-24T15:20:08Z</time>
</trkpt>
<trkpt lat="34.523178" lon="135.676064">
 <ele>446.8</ele>
 <time>2020-03-24T15:20:08Z</time>
</trkpt>
<trkpt lat="34.522972" lon="135.676032">
 <ele>456.2</ele>
 <time>2020-03-24T15:20:08Z</time>
</trkpt>
<trkpt lat="34.522818" lon="135.676021">
 <ele>461.5</ele>
 <time>2020-03-24T15:20:08Z</time>
</trkpt>
<trkpt lat="34.522681" lon="135.676000">
 <ele>469.5</ele>
 <time>2020-03-24T15:20:08Z</time>
</trkpt>
<trkpt lat="34.522586" lon="135.675989">
 <ele>472.1</ele>
 <time>2020-03-24T15:20:09Z</time>
</trkpt>
<trkpt lat="34.522535" lon="135.675925">
 <ele>473.2</ele>
 <time>2020-03-24T15:20:09Z</time>
</trkpt>
<trkpt lat="34.522378" lon="135.675772">
 <ele>473.8</ele>
 <time>2020-03-24T15:20:09Z</time>
</trkpt>
<trkpt lat="34.522535" lon="135.675903">
 <ele>473.3</ele>
 <time>2020-03-24T15:20:09Z</time>
</trkpt>
<trkpt lat="34.522595" lon="135.675989">
 <ele>472.1</ele>
 <time>2020-03-24T15:20:09Z</time>
</trkpt>
<trkpt lat="34.522681" lon="135.676011">
 <ele>468.1</ele>
 <time>2020-03-24T15:20:09Z</time>
</trkpt>
<trkpt lat="34.522826" lon="135.676011">
 <ele>459.7</ele>
 <time>2020-03-24T15:20:09Z</time>
</trkpt>
<trkpt lat="34.522972" lon="135.676021">
 <ele>456.2</ele>
 <time>2020-03-24T15:20:09Z</time>
</trkpt>
<trkpt lat="34.523195" lon="135.676054">
 <ele>446.8</ele>
 <time>2020-03-24T15:20:10Z</time>
</trkpt>
<trkpt lat="34.523316" lon="135.676086">
 <ele>444</ele>
 <time>2020-03-24T15:20:10Z</time>
</trkpt>
<trkpt lat="34.523419" lon="135.676107">
 <ele>440.4</ele>
 <time>2020-03-24T15:20:10Z</time>
</trkpt>
<trkpt lat="34.523513" lon="135.676107">
 <ele>437.3</ele>
 <time>2020-03-24T15:20:10Z</time>
</trkpt>
<trkpt lat="34.523650" lon="135.676172">
 <ele>433.4</ele>
 <time>2020-03-24T15:20:10Z</time>
</trkpt>
<trkpt lat="34.523753" lon="135.676204">
 <ele>431.2</ele>
 <time>2020-03-24T15:20:10Z</time>
</trkpt>
<trkpt lat="34.523813" lon="135.676204">
 <ele>431.2</ele>
 <time>2020-03-24T15:20:10Z</time>
</trkpt>
<trkpt lat="34.523856" lon="135.676193">
 <ele>431.2</ele>
 <time>2020-03-24T15:20:11Z</time>
</trkpt>
<trkpt lat="34.523779" lon="135.676107">
 <ele>430.7</ele>
 <time>2020-03-24T15:20:11Z</time>
</trkpt>
<trkpt lat="34.523745" lon="135.676054">
 <ele>430.4</ele>
 <time>2020-03-24T15:20:11Z</time>
</trkpt>
<trkpt lat="34.523702" lon="135.675978">
 <ele>430.9</ele>
 <time>2020-03-24T15:20:11Z</time>
</trkpt>
<trkpt lat="34.523650" lon="135.675796">
 <ele>429.7</ele>
 <time>2020-03-24T15:20:11Z</time>
</trkpt>
<trkpt lat="34.523590" lon="135.675592">
 <ele>424.7</ele>
 <time>2020-03-24T15:20:11Z</time>
</trkpt>
<trkpt lat="34.523539" lon="135.675463">
 <ele>423.3</ele>
 <time>2020-03-24T15:20:11Z</time>
</trkpt>
<trkpt lat="34.523419" lon="135.675378">
 <ele>424.7</ele>
 <time>2020-03-24T15:20:11Z</time>
</trkpt>
<trkpt lat="34.523290" lon="135.675270">
 <ele>425</ele>
 <time>2020-03-24T15:20:12Z</time>
</trkpt>
<trkpt lat="34.523247" lon="135.675142">
 <ele>424.1</ele>
 <time>2020-03-24T15:20:12Z</time>
</trkpt>
<trkpt lat="34.523195" lon="135.674938">
 <ele>422.5</ele>
 <time>2020-03-24T15:20:12Z</time>
</trkpt>
<trkpt lat="34.523110" lon="135.674830">
 <ele>422.7</ele>
 <time>2020-03-24T15:20:12Z</time>
</trkpt>
<trkpt lat="34.523024" lon="135.674723">
 <ele>421.4</ele>
 <time>2020-03-24T15:20:12Z</time>
</trkpt>
<trkpt lat="34.522904" lon="135.674584">
 <ele>415.5</ele>
 <time>2020-03-24T15:20:12Z</time>
</trkpt>
<trkpt lat="34.522895" lon="135.674498">
 <ele>412.2</ele>
 <time>2020-03-24T15:20:12Z</time>
</trkpt>
<trkpt lat="34.522869" lon="135.674412">
 <ele>409</ele>
 <time>2020-03-24T15:20:13Z</time>
</trkpt>
<trkpt lat="34.522844" lon="135.674380">
 <ele>408.8</ele>
 <time>2020-03-24T15:20:13Z</time>
</trkpt>
<trkpt lat="34.522852" lon="135.674283">
 <ele>405.2</ele>
 <time>2020-03-24T15:20:13Z</time>
</trkpt>
<trkpt lat="34.522852" lon="135.674144">
 <ele>401.7</ele>
 <time>2020-03-24T15:20:13Z</time>
</trkpt>
<trkpt lat="34.522801" lon="135.674037">
 <ele>400.1</ele>
 <time>2020-03-24T15:20:13Z</time>
</trkpt>
<trkpt lat="34.522741" lon="135.673951">
 <ele>398.8</ele>
 <time>2020-03-24T15:20:13Z</time>
</trkpt>
<trkpt lat="34.522732" lon="135.673919">
 <ele>397.9</ele>
 <time>2020-03-24T15:20:13Z</time>
</trkpt>
<trkpt lat="34.522663" lon="135.673876">
 <ele>397.4</ele>
 <time>2020-03-24T15:20:13Z</time>
</trkpt>
<trkpt lat="34.522578" lon="135.673801">
 <ele>395.7</ele>
 <time>2020-03-24T15:20:14Z</time>
</trkpt>
<trkpt lat="34.522466" lon="135.673736">
 <ele>395</ele>
 <time>2020-03-24T15:20:14Z</time>
</trkpt>
<trkpt lat="34.522346" lon="135.673736">
 <ele>393.1</ele>
 <time>2020-03-24T15:20:14Z</time>
</trkpt>
<trkpt lat="34.522166" lon="135.673758">
 <ele>388.2</ele>
 <time>2020-03-24T15:20:14Z</time>
</trkpt>
<trkpt lat="34.521977" lon="135.673876">
 <ele>386.8</ele>
 <time>2020-03-24T15:20:14Z</time>
</trkpt>
<trkpt lat="34.521908" lon="135.673951">
 <ele>385.1</ele>
 <time>2020-03-24T15:20:14Z</time>
</trkpt>
<trkpt lat="34.521814" lon="135.674058">
 <ele>381.4</ele>
 <time>2020-03-24T15:20:14Z</time>
</trkpt>
<trkpt lat="34.521719" lon="135.674101">
 <ele>377.7</ele>
 <time>2020-03-24T15:20:14Z</time>
</trkpt>
<trkpt lat="34.521530" lon="135.674187">
 <ele>376.1</ele>
 <time>2020-03-24T15:20:15Z</time>
</trkpt>
<trkpt lat="34.521316" lon="135.674251">
 <ele>377.3</ele>
 <time>2020-03-24T15:20:15Z</time>
</trkpt>
<trkpt lat="34.521221" lon="135.674240">
 <ele>374</ele>
 <time>2020-03-24T15:20:15Z</time>
</trkpt>
<trkpt lat="34.521161" lon="135.674348">
 <ele>374.5</ele>
 <time>2020-03-24T15:20:15Z</time>
</trkpt>
<trkpt lat="34.521127" lon="135.674466">
 <ele>373.6</ele>
 <time>2020-03-24T15:20:15Z</time>
</trkpt>
<trkpt lat="34.521161" lon="135.674594">
 <ele>371</ele>
 <time>2020-03-24T15:20:15Z</time>
</trkpt>
<trkpt lat="34.521187" lon="135.674702">
 <ele>370.4</ele>
 <time>2020-03-24T15:20:15Z</time>
</trkpt>
<trkpt lat="34.521204" lon="135.674777">
 <ele>370.4</ele>
 <time>2020-03-24T15:20:16Z</time>
</trkpt>
<trkpt lat="34.521136" lon="135.674991">
 <ele>364.1</ele>
 <time>2020-03-24T15:20:16Z</time>
</trkpt>
<trkpt lat="34.521050" lon="135.675056">
 <ele>357</ele>
 <time>2020-03-24T15:20:16Z</time>
</trkpt>
<trkpt lat="34.520912" lon="135.675109">
 <ele>349.2</ele>
 <time>2020-03-24T15:20:16Z</time>
</trkpt>
<trkpt lat="34.520766" lon="135.675206">
 <ele>347</ele>
 <time>2020-03-24T15:20:16Z</time>
</trkpt>
<trkpt lat="34.520689" lon="135.675260">
 <ele>347</ele>
 <time>2020-03-24T15:20:16Z</time>
</trkpt>
<trkpt lat="34.520646" lon="135.675313">
 <ele>347.6</ele>
 <time>2020-03-24T15:20:16Z</time>
</trkpt>
<trkpt lat="34.520595" lon="135.675442">
 <ele>342</ele>
 <time>2020-03-24T15:20:16Z</time>
</trkpt>
<trkpt lat="34.520578" lon="135.675571">
 <ele>340.1</ele>
 <time>2020-03-24T15:20:17Z</time>
</trkpt>
<trkpt lat="34.520569" lon="135.675678">
 <ele>338.1</ele>
 <time>2020-03-24T15:20:17Z</time>
</trkpt>
<trkpt lat="34.520552" lon="135.675796">
 <ele>333.9</ele>
 <time>2020-03-24T15:20:17Z</time>
</trkpt>
<trkpt lat="34.520526" lon="135.675936">
 <ele>334.6</ele>
 <time>2020-03-24T15:20:17Z</time>
</trkpt>
<trkpt lat="34.520432" lon="135.676075">
 <ele>334.3</ele>
 <time>2020-03-24T15:20:17Z</time>
</trkpt>
<trkpt lat="34.520354" lon="135.676096">
 <ele>336.5</ele>
 <time>2020-03-24T15:20:17Z</time>
</trkpt>
<trkpt lat="34.520303" lon="135.675989">
 <ele>331.4</ele>
 <time>2020-03-24T15:20:17Z</time>
</trkpt>
<trkpt lat="34.520260" lon="135.675828">
 <ele>324.6</ele>
 <time>2020-03-24T15:20:18Z</time>
</trkpt>
<trkpt lat="34.520217" lon="135.675689">
 <ele>321.2</ele>
 <time>2020-03-24T15:20:18Z</time>
</trkpt>
<trkpt lat="34.520183" lon="135.675517">
 <ele>316.2</ele>
 <time>2020-03-24T15:20:18Z</time>
</trkpt>
<trkpt lat="34.520166" lon="135.675442">
 <ele>315.6</ele>
 <time>2020-03-24T15:20:18Z</time>
</trkpt>
<trkpt lat="34.520123" lon="135.675356">
 <ele>313.9</ele>
 <time>2020-03-24T15:20:18Z</time>
</trkpt>
<trkpt lat="34.520114" lon="135.675163">
 <ele>308.2</ele>
 <time>2020-03-24T15:20:18Z</time>
</trkpt>
<trkpt lat="34.520106" lon="135.675067">
 <ele>306.5</ele>
 <time>2020-03-24T15:20:18Z</time>
</trkpt>
<trkpt lat="34.520097" lon="135.675002">
 <ele>303.9</ele>
 <time>2020-03-24T15:20:18Z</time>
</trkpt>
<trkpt lat="34.520063" lon="135.674895">
 <ele>301.6</ele>
 <time>2020-03-24T15:20:19Z</time>
</trkpt>
<trkpt lat="34.520003" lon="135.674766">
 <ele>298.8</ele>
 <time>2020-03-24T15:20:19Z</time>
</trkpt>
<trkpt lat="34.519994" lon="135.674680">
 <ele>297.1</ele>
 <time>2020-03-24T15:20:19Z</time>
</trkpt>
<trkpt lat="34.519968" lon="135.674584">
 <ele>294</ele>
 <time>2020-03-24T15:20:19Z</time>
</trkpt>
<trkpt lat="34.519934" lon="135.674466">
 <ele>292.5</ele>
 <time>2020-03-24T15:20:19Z</time>
</trkpt>
<trkpt lat="34.519900" lon="135.674358">
 <ele>290.7</ele>
 <time>2020-03-24T15:20:19Z</time>
</trkpt>
<trkpt lat="34.519805" lon="135.674305">
 <ele>286.7</ele>
 <time>2020-03-24T15:20:19Z</time>
</trkpt>
<trkpt lat="34.519676" lon="135.674155">
 <ele>283.8</ele>
 <time>2020-03-24T15:20:19Z</time>
</trkpt>
<trkpt lat="34.519599" lon="135.674037">
 <ele>278</ele>
 <time>2020-03-24T15:20:20Z</time>
</trkpt>
<trkpt lat="34.519573" lon="135.673908">
 <ele>278.4</ele>
 <time>2020-03-24T15:20:20Z</time>
</trkpt>
<trkpt lat="34.519531" lon="135.673811">
 <ele>281.1</ele>
 <time>2020-03-24T15:20:20Z</time>
</trkpt>
<trkpt lat="34.519470" lon="135.673747">
 <ele>281</ele>
 <time>2020-03-24T15:20:20Z</time>
</trkpt>
<trkpt lat="34.519402" lon="135.673629">
 <ele>276.2</ele>
 <time>2020-03-24T15:20:20Z</time>
</trkpt>
<trkpt lat="34.519342" lon="135.673543">
 <ele>270.2</ele>
 <time>2020-03-24T15:20:20Z</time>
</trkpt>
<trkpt lat="34.519273" lon="135.673500">
 <ele>269.2</ele>
 <time>2020-03-24T15:20:20Z</time>
</trkpt>
<trkpt lat="34.519230" lon="135.673371">
 <ele>266.5</ele>
 <time>2020-03-24T15:20:21Z</time>
</trkpt>
<trkpt lat="34.519127" lon="135.673210">
 <ele>264.1</ele>
 <time>2020-03-24T15:20:21Z</time>
</trkpt>
<trkpt lat="34.519101" lon="135.673103">
 <ele>263.6</ele>
 <time>2020-03-24T15:20:21Z</time>
</trkpt>
<trkpt lat="34.519033" lon="135.673039">
 <ele>262.6</ele>
 <time>2020-03-24T15:20:21Z</time>
</trkpt>
<trkpt lat="34.518955" lon="135.673039">
 <ele>263</ele>
 <time>2020-03-24T15:20:21Z</time>
</trkpt>
<trkpt lat="34.518887" lon="135.673007">
 <ele>263.2</ele>
 <time>2020-03-24T15:20:21Z</time>
</trkpt>
<trkpt lat="34.518835" lon="135.672931">
 <ele>259.5</ele>
 <time>2020-03-24T15:20:21Z</time>
</trkpt>
<trkpt lat="34.518801" lon="135.672856">
 <ele>257.8</ele>
 <time>2020-03-24T15:20:21Z</time>
</trkpt>
<trkpt lat="34.518784" lon="135.672803">
 <ele>255.9</ele>
 <time>2020-03-24T15:20:22Z</time>
</trkpt>
<trkpt lat="34.518810" lon="135.672728">
 <ele>254.4</ele>
 <time>2020-03-24T15:20:22Z</time>
</trkpt>
<trkpt lat="34.518827" lon="135.672674">
 <ele>254</ele>
 <time>2020-03-24T15:20:22Z</time>
</trkpt>
<trkpt lat="34.518801" lon="135.672599">
 <ele>256.1</ele>
 <time>2020-03-24T15:20:22Z</time>
</trkpt>
<trkpt lat="34.518758" lon="135.672524">
 <ele>259.4</ele>
 <time>2020-03-24T15:20:22Z</time>
</trkpt>
<trkpt lat="34.518698" lon="135.672470">
 <ele>259.4</ele>
 <time>2020-03-24T15:20:22Z</time>
</trkpt>
<trkpt lat="34.518629" lon="135.672374">
 <ele>253.4</ele>
 <time>2020-03-24T15:20:22Z</time>
</trkpt>
<trkpt lat="34.518561" lon="135.672298">
 <ele>254.4</ele>
 <time>2020-03-24T15:20:22Z</time>
</trkpt>
<trkpt lat="34.518509" lon="135.672277">
 <ele>253.7</ele>
 <time>2020-03-24T15:20:23Z</time>
</trkpt>
<trkpt lat="34.518466" lon="135.672223">
 <ele>253.4</ele>
 <time>2020-03-24T15:20:23Z</time>
</trkpt>
<trkpt lat="34.518440" lon="135.672159">
 <ele>254.2</ele>
 <time>2020-03-24T15:20:23Z</time>
</trkpt>
<trkpt lat="34.518423" lon="135.672095">
 <ele>253.9</ele>
 <time>2020-03-24T15:20:23Z</time>
</trkpt>
<trkpt lat="34.518415" lon="135.672030">
 <ele>252.8</ele>
 <time>2020-03-24T15:20:23Z</time>
</trkpt>
<trkpt lat="34.518398" lon="135.671955">
 <ele>250.2</ele>
 <time>2020-03-24T15:20:23Z</time>
</trkpt>
<trkpt lat="34.518398" lon="135.671848">
 <ele>246.8</ele>
 <time>2020-03-24T15:20:23Z</time>
</trkpt>
<trkpt lat="34.518398" lon="135.671751">
 <ele>244.1</ele>
 <time>2020-03-24T15:20:24Z</time>
</trkpt>
<trkpt lat="34.518440" lon="135.671665">
 <ele>241.7</ele>
 <time>2020-03-24T15:20:24Z</time>
</trkpt>
<trkpt lat="34.518483" lon="135.671547">
 <ele>238.8</ele>
 <time>2020-03-24T15:20:24Z</time>
</trkpt>
<trkpt lat="34.518518" lon="135.671472">
 <ele>235.8</ele>
 <time>2020-03-24T15:20:24Z</time>
</trkpt>
<trkpt lat="34.518518" lon="135.671344">
 <ele>233.3</ele>
 <time>2020-03-24T15:20:24Z</time>
</trkpt>
<trkpt lat="34.518518" lon="135.671151">
 <ele>232.4</ele>
 <time>2020-03-24T15:20:24Z</time>
</trkpt>
<trkpt lat="34.518492" lon="135.670861">
 <ele>231.4</ele>
 <time>2020-03-24T15:20:24Z</time>
</trkpt>
<trkpt lat="34.518526" lon="135.670764">
 <ele>230.6</ele>
 <time>2020-03-24T15:20:24Z</time>
</trkpt>
<trkpt lat="34.518604" lon="135.670432">
 <ele>229.8</ele>
 <time>2020-03-24T15:20:25Z</time>
</trkpt>
<trkpt lat="34.518646" lon="135.670239">
 <ele>227.6</ele>
 <time>2020-03-24T15:20:25Z</time>
</trkpt>
<trkpt lat="34.518689" lon="135.670024">
 <ele>226.2</ele>
 <time>2020-03-24T15:20:25Z</time>
</trkpt>
</trkseg>
</trk>
</gpx>

